Satellite: NOAA-10 Catalog number: 16969 Epoch time: 11152.71900643 Element set: 0520 Inclination: 098.6193 deg RA of node: 182.7156 deg Eccentricity: 0.0011355 Arg of perigee: 271.2189 deg Mean anomaly: 088.7661 deg Mean motion: 14.27462091 rev/day Decay rate: -7.7e-07 rev/day^2 Epoch rev: 28544 Checksum: 311
Satellite: NOAA-11 Catalog number: 19531 Epoch time: 11152.78457120 Element set: 0521 Inclination: 098.7522 deg RA of node: 240.5386 deg Eccentricity: 0.0010534 Arg of perigee: 230.4074 deg Mean anomaly: 129.6163 deg Mean motion: 14.14917603 rev/day Decay rate: 2.03e-06 rev/day^2 Epoch rev: 17057 Checksum: 266
Satellite: NOAA-12 Catalog number: 21263 Epoch time: 11152.92774627 Element set: 0036 Inclination: 098.7506 deg RA of node: 170.7981 deg Eccentricity: 0.0011461 Arg of perigee: 229.5767 deg Mean anomaly: 130.4412 deg Mean motion: 14.25713740 rev/day Decay rate: 8.6e-07 rev/day^2 Epoch rev: 04223 Checksum: 284
Satellite: MET-3/5 Catalog number: 21655 Epoch time: 11152.78825541 Element set: 124 Inclination: 082.5596 deg RA of node: 061.6556 deg Eccentricity: 0.0012798 Arg of perigee: 190.6263 deg Mean anomaly: 169.4625 deg Mean motion: 13.17029817 rev/day Decay rate: 5.1e-07 rev/day^2 Epoch rev: 95169 Checksum: 321
Satellite: MET-2/21 Catalog number: 22782 Epoch time: 11152.63687406 Element set: 0111 Inclination: 082.5471 deg RA of node: 335.2172 deg Eccentricity: 0.0023314 Arg of perigee: 139.3880 deg Mean anomaly: 220.9011 deg Mean motion: 13.83658115 rev/day Decay rate: 2.9e-07 rev/day^2 Epoch rev: 89640 Checksum: 279
Satellite: OKEAN-4 Catalog number: 23317 Epoch time: 11152.91641562 Element set: 0639 Inclination: 082.5416 deg RA of node: 027.4008 deg Eccentricity: 0.0022131 Arg of perigee: 164.5251 deg Mean anomaly: 195.6645 deg Mean motion: 14.83073310 rev/day Decay rate: 4.90e-06 rev/day^2 Epoch rev: 89828 Checksum: 286
Satellite: NOAA-14 Catalog number: 23455 Epoch time: 11152.96170841 Element set: 0520 Inclination: 098.8515 deg RA of node: 235.7483 deg Eccentricity: 0.0009096 Arg of perigee: 328.6345 deg Mean anomaly: 031.4280 deg Mean motion: 14.13819803 rev/day Decay rate: -6.1e-07 rev/day^2 Epoch rev: 84692 Checksum: 304
Satellite: NOAA-15 Catalog number: 25338 Epoch time: 11152.57648368 Element set: 0835 Inclination: 098.6518 deg RA of node: 138.9331 deg Eccentricity: 0.0011290 Arg of perigee: 133.8611 deg Mean anomaly: 226.3502 deg Mean motion: 14.24918363 rev/day Decay rate: 1.43e-06 rev/day^2 Epoch rev: 67850 Checksum: 306
Satellite: RESURS Catalog number: 25394 Epoch time: 11152.93266732 Element set: 0827 Inclination: 098.3008 deg RA of node: 156.7966 deg Eccentricity: 0.0000711 Arg of perigee: 325.2312 deg Mean anomaly: 034.8823 deg Mean motion: 14.24233783 rev/day Decay rate: -3.0e-07 rev/day^2 Epoch rev: 67013 Checksum: 279
Satellite: FENGYUN1 Catalog number: 25730 Epoch time: 11153.96522189 Element set: 339 Inclination: 098.8143 deg RA of node: 115.4760 deg Eccentricity: 0.0025395 Arg of perigee: 356.4530 deg Mean anomaly: 003.6453 deg Mean motion: 14.08614365 rev/day Decay rate: 5.53e-06 rev/day^2 Epoch rev: 62106 Checksum: 289
Satellite: OKEAN-0 Catalog number: 25860 Epoch time: 11153.90415609 Element set: 323 Inclination: 097.8832 deg RA of node: 120.7428 deg Eccentricity: 0.0001851 Arg of perigee: 055.3717 deg Mean anomaly: 304.7665 deg Mean motion: 14.73786551 rev/day Decay rate: 2.43e-06 rev/day^2 Epoch rev: 63855 Checksum: 302
Satellite: NOAA-16 Catalog number: 26536 Epoch time: 11152.56532236 Element set: 0317 Inclination: 099.1389 deg RA of node: 182.7886 deg Eccentricity: 0.0011426 Arg of perigee: 078.6647 deg Mean anomaly: 281.5814 deg Mean motion: 14.12622273 rev/day Decay rate: 3.66e-06 rev/day^2 Epoch rev: 55115 Checksum: 314
Satellite: NOAA-17 Catalog number: 27453 Epoch time: 11152.72100908 Element set: 0308 Inclination: 098.3795 deg RA of node: 193.1402 deg Eccentricity: 0.0011532 Arg of perigee: 189.5569 deg Mean anomaly: 170.5393 deg Mean motion: 14.24277593 rev/day Decay rate: 2.57e-06 rev/day^2 Epoch rev: 46445 Checksum: 312
Satellite: NOAA-18 Catalog number: 28654 Epoch time: 11152.71759460 Element set: 0788 Inclination: 098.9932 deg RA of node: 103.8270 deg Eccentricity: 0.0014731 Arg of perigee: 145.2248 deg Mean anomaly: 214.9883 deg Mean motion: 14.11477750 rev/day Decay rate: 1.38e-06 rev/day^2 Epoch rev: 31074 Checksum: 318
Satellite: NOAA-19 Catalog number: 33591 Epoch time: 11152.71138703 Element set: 0979 Inclination: 098.8250 deg RA of node: 093.1262 deg Eccentricity: 0.0014759 Arg of perigee: 023.5081 deg Mean anomaly: 336.6750 deg Mean motion: 14.11169348 rev/day Decay rate: -1.02e-06 rev/day^2 Epoch rev: 11920 Checksum: 291
/EX SB KEPS @ AMSAT $ORB11153.M Orbital Elements 11153.MISC
HR AMSAT ORBITAL ELEMENTS FOR MANNED AND MISCELLANEOUS SATELLITES FROM WA5QGD FORT WORTH,TX June 2, 2011 Send Subscribe/unsubscribe to KEPS at http://www.amsat.org/mailman/listinfo/keps BID: ORB11153.M TO ALL RADIO AMATEURS BT
Satellite: HUBBLE Catalog number: 20580 Epoch time: 11152.23076218 Element set: 0774 Inclination: 028.4692 deg RA of node: 120.6850 deg Eccentricity: 0.0003093 Arg of perigee: 308.8152 deg Mean anomaly: 051.2073 deg Mean motion: 15.01371121 rev/day Decay rate: 8.17e-06 rev/day^2 Epoch rev: 95725 Checksum: 260
Satellite: ISS Catalog number: 25544 Epoch time: 11153.74383836 Element set: 461 Inclination: 051.6505 deg RA of node: 234.6982 deg Eccentricity: 0.0005699 Arg of perigee: 004.0868 deg Mean anomaly: 136.4001 deg Mean motion: 15.75694979 rev/day Decay rate: 2.2373e-04 rev/day^2 Epoch rev: 71863 Checksum: 321
Satellite: CO-58 Catalog number: 28895 Epoch time: 11152.64627693 Element set: 0889 Inclination: 097.9707 deg RA of node: 029.6353 deg Eccentricity: 0.0016703 Arg of perigee: 270.3036 deg Mean anomaly: 089.6255 deg Mean motion: 14.60104922 rev/day Decay rate: 2.37e-06 rev/day^2 Epoch rev: 29797 Checksum: 348
Satellite: FALCON Catalog number: 30776 Epoch time: 11152.98091667 Element set: 0102 Inclination: 035.4328 deg RA of node: 079.4373 deg Eccentricity: 0.0002162 Arg of perigee: 312.7606 deg Mean anomaly: 047.2935 deg Mean motion: 15.04624687 rev/day Decay rate: 2.375e-05 rev/day^2 Epoch rev: 23275 Checksum: 293
Satellite: MAST Catalog number: 31126 Epoch time: 11152.75564935 Element set: 0186 Inclination: 097.8944 deg RA of node: 180.8521 deg Eccentricity: 0.0093717 Arg of perigee: 218.0479 deg Mean anomaly: 141.4071 deg Mean motion: 14.53748645 rev/day Decay rate: 2.18e-06 rev/day^2 Epoch rev: 21884 Checksum: 314
Satellite: CAPE1 Catalog number: 31130 Epoch time: 11152.65857714 Element set: 189 Inclination: 097.8983 deg RA of node: 177.5508 deg Eccentricity: 0.0101348 Arg of perigee: 229.2339 deg Mean anomaly: 130.0021 deg Mean motion: 14.52392249 rev/day Decay rate: 2.38e-06 rev/day^2 Epoch rev: 21838 Checksum: 296
Satellite: COMPASS Catalog number: 32787 Epoch time: 11152.61874226 Element set: 0003 Inclination: 097.8476 deg RA of node: 216.7238 deg Eccentricity: 0.0014690 Arg of perigee: 225.0857 deg Mean anomaly: 134.9171 deg Mean motion: 14.82417661 rev/day Decay rate: 1.566e-05 rev/day^2 Epoch rev: 16725 Checksum: 308
Satellite: AAUSAT2 Catalog number: 32788 Epoch time: 11153.66424686 Element set: 992 Inclination: 097.8487 deg RA of node: 217.9682 deg Eccentricity: 0.0014236 Arg of perigee: 221.2835 deg Mean anomaly: 138.7304 deg Mean motion: 14.82601661 rev/day Decay rate: 9.13e-06 rev/day^2 Epoch rev: 16742 Checksum: 323
Satellite: DO-64 Catalog number: 32789 Epoch time: 11153.74590788 Element set: 9 Inclination: 097.8578 deg RA of node: 219.0258 deg Eccentricity: 0.0014482 Arg of perigee: 218.4115 deg Mean anomaly: 141.6068 deg Mean motion: 14.83063194 rev/day Decay rate: 2.160e-05 rev/day^2 Epoch rev: 16744 Checksum: 324
Satellite: CO-66 Catalog number: 32791 Epoch time: 11152.42961552 Element set: 0996 Inclination: 097.8508 deg RA of node: 216.4856 deg Eccentricity: 0.0015101 Arg of perigee: 223.2381 deg Mean anomaly: 136.7647 deg Mean motion: 14.82111219 rev/day Decay rate: 1.306e-05 rev/day^2 Epoch rev: 16717 Checksum: 305
Satellite: RS-30 Catalog number: 32953 Epoch time: 11153.98149507 Element set: 786 Inclination: 082.5005 deg RA of node: 171.5544 deg Eccentricity: 0.0020353 Arg of perigee: 060.1110 deg Mean anomaly: 300.1991 deg Mean motion: 12.43013205 rev/day Decay rate: 1.0e-07 rev/day^2 Epoch rev: 13732 Checksum: 241
Satellite: TACSAT-3 Catalog number: 35001 Epoch time: 11152.77703441 Element set: 606 Inclination: 040.4514 deg RA of node: 266.3207 deg Eccentricity: 0.0021599 Arg of perigee: 091.6404 deg Mean anomaly: 268.6887 deg Mean motion: 15.48651980 rev/day Decay rate: 1.8467e-04 rev/day^2 Epoch rev: 11469 Checksum: 308
Satellite: PHARMSAT Catalog number: 35002 Epoch time: 11152.67574439 Element set: 0568 Inclination: 040.4677 deg RA of node: 264.6098 deg Eccentricity: 0.0023287 Arg of perigee: 099.4319 deg Mean anomaly: 260.9127 deg Mean motion: 15.48301208 rev/day Decay rate: 1.5921e-04 rev/day^2 Epoch rev: 11470 Checksum: 301
Satellite: HAWKSAT1 Catalog number: 35003 Epoch time: 11153.54287413 Element set: 637 Inclination: 040.4564 deg RA of node: 232.6889 deg Eccentricity: 0.0019967 Arg of perigee: 129.6728 deg Mean anomaly: 230.5860 deg Mean motion: 15.64066499 rev/day Decay rate: 6.9290e-04 rev/day^2 Epoch rev: 11513 Checksum: 319
Satellite: CP6 Catalog number: 35004 Epoch time: 11153.56278888 Element set: 641 Inclination: 040.4540 deg RA of node: 224.6342 deg Eccentricity: 0.0018715 Arg of perigee: 131.0252 deg Mean anomaly: 229.2196 deg Mean motion: 15.70159308 rev/day Decay rate: 1.02255e-03 rev/day^2 Epoch rev: 11521 Checksum: 269
